Погода в Крюково

Россия / Ярославская область     57°50′04″N   38°14′59″E
темп.,
°C
ветер,
м/с
пор.,
м/с
влажн.,
%
обл.,
%
осадки,
мм/ч
давл.,
гПа
погр.,
м
18 мая, вт
вт1800:00+16в41096100 0.1 1012226
03:00+15вюв4109647 0.1 1011200
06:00+17юв5139070 0.0 1011290
09:00+21юв511685 0.0 1011476
12:00+26юв71252100 0.0 10111167
15:00+26юв71255100 0.0 10111072
18:00+24юв511585 0.0 1010376
21:00+20вюв6166857 0.0 1010453
19 мая, ср
ср1900:00+19юв615735 0.0 1009428
03:00+15вюв412870 0.0 1010231
06:00+17вюв5148142 0.0 1009402
09:00+22юв6156574 0.0 1009720
12:00+25юв715549 0.0 10081326
15:00+26юв8165380 0.0 10081904
18:00+24ююв51161100 0.0 1008535
21:00+19вюв488147 0.0 1008139
20 мая, чт
чт2000:00+17юв3694100 2.1 1008113
03:00+17вюв3696100 7.4 1009126
06:00+17вюв499338 0.0 1008355
09:00+20вюв697393 0.0 1007632
12:00+22юв6117145 0.0 10071332
15:00+20ююв8137851 2.4 10061235
18:00+19ююв611815 0.8 10061094
21:00+15юв5118842 0.8 1006337
21 мая, пт
пт2100:00+13юв410945 0.0 1006305
03:00+12юв38977 0.0 1005234
06:00+13юв479453 0.0 1004326
09:00+12ююв4893100 1.1 1004727
12:00+15юз5680100 1.2 1004923
15:00+11юз4893100 2.2 1006511
18:00+13зюз698474 0.4 1008775
21:00+11з6118887 0.4 1011624
22 мая, сб
сб2200:00+8зюз511915 0.0 1014305
03:00+7ююз399470 0.0 1015196
06:00+9юз388719 0.0 1017264
09:00+14зюз59560 0.0 10181342
12:00+16зюз57495 0.0 10191842
15:00+17юз45481 0.0 10181817
18:00+17юз25584 0.0 10181648
21:00+12юв11694 0.0 101810